Location: Cortada de Papelón
(10.0378°N, 66.9528°W)
Time: 09:30:59
(UTC+00:00)

Centaur D-1AR AC-36 - Pass Details

Date: 13 June 2024
Orbit: 528 x 36345 km, 22.2° (Epoch: 19 July)

Event Time Altitude Azimuth Distance (km) Brightness Sun altitude
Rises 22:48:44 0° 300° (WNW) 3,219 8.1 -0.7°
Reaches altitude 10° 22:50:16 10° 307° (NW) 2,642 6.6 -1.1°
Maximum altitude 22:55:56 50° 25° (NNE) 2,273 4.5 -2.3°
Enters shadow 00:02:04 - 103° (ESE) 21,382 8.7 -17.0°
Exits shadow 00:18:45 - 104° (ESE) 24,481 9.0 -20.5°
Drops below altitude 10° 08:46:41 10° 116° (ESE) 14,002 8.9 -18.6°
Sets 08:56:22 0° 110° (ESE) 12,528 8.8 -16.5°
